Regional Weather Roundup
Issued by NWS Binghamton, NY

Home | Current Version | Previous Version | Text Only | Print | Product List | Glossary On
Versions: 1 2 3 4 5 6 7 8 9 10 11 12 13 14 15 16 17 18 19 20 21 22 23 24 25 26 27 28
000
ASUS41 KBGM 260110
RWRBGM
RWRBGM
BINGHAMTON REGIONAL WEATHER ROUNDUP
NATIONAL WEATHER SERVICE BINGHAMTON NY
900 PM EDT SAT OCT 25 2014

Note: "fair" indicates few or no clouds below 12,000 feet with no
significant weather and/or obstructions to visibility.

* = Station(s) that does not report precipitation, such as rain,
snow, etc, also no thunder or fog.

!NYZ009-015>018-022>025-036-037-044>046-055>057-062-260200
...CENTRAL NEW YORK...

CITY           SKY/WX    TMP DP  RH WIND       PRES   REMARKS
BINGHAMTON     PTCLDY    53  46  77 W9        29.62R
CORTLAND       CLOUDY    55  48  76 W7G16     29.62S
DANSVILLE      PTCLDY    57  46  66 CALM      29.64F
ELMIRA         PTCLDY    60  42  51 W14       29.63R
ITHACA         MOCLDY    58  45  62 W13G21    29.63S
HAMILTON       CLEAR     55  46  71 NW9       29.60R
MONTICELLO     MOCLDY    54  43  66 NW5       29.59S
NORWICH        CLEAR     50  46  87 CALM      29.61R
ONEONTA        CLEAR     52  45  76 W7        29.59S
PENN YAN       CLEAR     57  46  66 W14G22    29.62S
ROME           CLEAR     51  49  92 W8        29.59S FOG
SIDNEY         PTCLDY    52  52 100 CALM      29.60S
SYRACUSE       PTCLDY    54  46  74 W6        29.59S
$$

!PAZ038>040-043-044-047-048-072-260200
...NORTHEAST PENNSYLVANIA...

CITY           SKY/WX    TMP DP  RH WIND       PRES   REMARKS
HAZLETON       CLEAR     59  46  63 SW6       29.67F
SCRANTON       CLOUDY    63  46  54 SW9       29.61S
TOWANDA*       PTCLDY    63  43  48 W12G23    29.63R
$$
&&
KEY
WCI = WIND CHILL INDEX
VSB = VISIBILITY
HX  = HEAT INDEX
$$



USA.gov is the U.S. government's official web portal to all federal, state and local government web resources and services.